SCP
0 0 0 0 0 0 0 0 1 1 2 1 2 2 2 3 4 4 4 3 3 2
0 0 0 0 0 0 0 0 0 0 1 1 1 2 2 3 4 4 4 3 3 2
0 0 0 0 0 0 0 0 0 0 0 0 1 1 1 2 3 4 4 3 3 3
0 0 0 0 0 0 0 0 0 0 0 0 0 1 1 1 2 2 4 4 3 3
0 0 0 0 0 0 0 0 0 0 0 0 0 1 1 1 1 2 2 3 5 2
0 0 0 0 0 0 0 0 0 0 0 0 0 0 1 1 1 1 2 3 2 0
0 0 0 0 0 0 0 0 0 0 0 0 0 0 1 1 1 1 1 1 0 0
0 0 0 0 0 0 0 0 0 0 0 0 0 0 1 0 0 0 0 0 0 0
0 0 0 0 0 0 0 0 -0 -0 -0 0 0 0 0 0 0 0 0 0 0 0
0 0 0 0 0 0 0 0 0 0 0 0 0 0 0 0 0 0 0 0 0 0
-0 0 0 0 0 -0 -0 -0 -0 -0 -0 0 0 0 0 0 0 0 0 0 0 0
-0 -0 -0 -0 -0 -0 -0 -0 -0 0 -0 -0 0 0 -0 0 0 0 0 0 0 0
-0 -0 -0 -0 -0 0 0 -0 0 0 0 -0 0 0 0 0 0 0 0 0 0 0
-0 -0 -0 0 0 -0 -0 -0 -0 -0 -0 0 0 0 0 0 0 0 0 0 0 0
Wind_Speed_500mb
61 63 65 57 59 63 59 54 57 56 58 65 61 71 74 86 82 76 68 65 63 58
60 61 66 71 66 72 73 67 59 61 59 66 65 65 75 78 84 75 67 60 59 61
70 70 67 69 70 68 66 66 74 74 70 64 62 70 68 70 77 75 69 59 51 53
82 83 73 73 70 69 71 72 68 67 67 69 70 65 74 72 72 70 69 63 49 50
73 75 71 69 68 71 73 72 70 74 66 64 62 62 66 71 64 68 64 61 53 55
73 67 65 66 64 65 69 70 71 70 65 63 63 65 63 67 61 63 58 57 56 53
69 68 68 66 63 61 62 63 65 62 60 60 59 52 53 55 54 53 53 50 46 50
66 64 59 53 56 56 48 43 44 49 49 48 52 51 46 46 53 58 57 57 57 48
61 59 52 52 43 34 18 23 32 33 43 39 50 54 59 59 60 56 59 54 49 45
59 54 49 42 26 13 10 19 30 37 44 49 48 52 58 54 55 58 57 53 51 51
57 48 38 25 12 6 3 11 19 27 31 34 47 51 50 57 53 54 54 52 51 47
50 36 21 12 16 26 33 39 43 46 42 45 45 34 35 44 57 60 58 56 53 47
33 21 14 18 33 42 47 52 53 62 60 57 57 44 44 54 65 69 68 61 58 50
23 22 21 28 41 50 59 62 68 71 66 63 60 59 63 69 71 72 69 66 61 51
Wind_Direction_500mb
289 286 286 284 274 269 267 264 260 258 262 257 258 253 250 243 238 237 238 241 239 239
290 287 284 281 281 270 266 263 272 269 266 266 252 254 254 248 238 234 235 236 239 240
294 293 287 281 279 274 268 268 260 257 256 250 260 252 252 250 240 232 228 227 235 239
297 296 293 286 281 276 276 273 267 263 263 258 248 252 248 247 240 231 228 222 225 231
301 301 295 290 283 275 272 269 262 264 257 256 250 244 248 246 239 228 223 222 219 224
313 312 306 299 292 282 277 271 265 258 252 250 240 238 240 241 236 226 219 219 213 219
317 313 305 298 296 291 280 272 260 251 248 244 232 235 236 235 230 225 209 205 212 221
314 315 315 312 308 304 287 260 257 243 240 237 233 226 236 216 215 210 211 208 211 213
327 325 325 317 320 314 286 260 246 235 234 231 233 227 222 221 212 215 205 201 199 193
336 332 326 326 322 334 287 246 229 226 220 216 218 219 217 212 207 198 198 192 181 177
339 336 333 332 340 15 131 156 150 154 165 172 166 195 209 191 179 176 173 169 162 159
342 346 352 25 89 103 110 111 114 117 125 136 140 174 185 184 164 156 145 140 135 130
354 9 34 90 107 109 107 111 114 118 118 125 130 149 158 153 145 135 129 125 116 109
28 52 76 99 104 108 109 112 112 111 113 118 126 136 139 135 133 128 122 116 112 107
Wind_Speed_850mb
61 63 65 57 59 63 59 54 57 56 58 65 61 71 74 86 82 76 68 65 63 58
60 61 66 71 66 72 73 67 59 61 59 66 65 65 75 78 84 75 67 60 59 61
70 70 67 69 70 68 66 66 74 74 70 64 62 70 68 70 77 75 69 59 51 53
82 83 73 73 70 69 71 72 68 67 67 69 70 65 74 72 72 70 69 63 49 50
73 75 71 69 68 71 73 72 70 74 66 64 62 62 66 71 64 68 64 61 53 55
73 67 65 66 64 65 69 70 71 70 65 63 63 65 63 67 61 63 58 57 56 53
69 68 68 66 63 61 62 63 65 62 60 60 59 52 53 55 54 53 53 50 46 50
66 64 59 53 56 56 48 43 44 49 49 48 52 51 46 46 53 58 57 57 57 48
61 59 52 52 43 34 18 23 32 33 43 39 50 54 59 59 60 56 59 54 49 45
59 54 49 42 26 13 10 19 30 37 44 49 48 52 58 54 55 58 57 53 51 51
57 48 38 25 12 6 3 11 19 27 31 34 47 51 50 57 53 54 54 52 51 47
50 36 21 12 16 26 33 39 43 46 42 45 45 34 35 44 57 60 58 56 53 47
33 21 14 18 33 42 47 52 53 62 60 57 57 44 44 54 65 69 68 61 58 50
23 22 21 28 41 50 59 62 68 71 66 63 60 59 63 69 71 72 69 66 61 51
Wind_Direction_850mb
289 286 286 284 274 269 267 264 260 258 262 257 258 253 250 243 238 237 238 241 239 239
290 287 284 281 281 270 266 263 272 269 266 266 252 254 254 248 238 234 235 236 239 240
294 293 287 281 279 274 268 268 260 257 256 250 260 252 252 250 240 232 228 227 235 239
297 296 293 286 281 276 276 273 267 263 263 258 248 252 248 247 240 231 228 222 225 231
301 301 295 290 283 275 272 269 262 264 257 256 250 244 248 246 239 228 223 222 219 224
313 312 306 299 292 282 277 271 265 258 252 250 240 238 240 241 236 226 219 219 213 219
317 313 305 298 296 291 280 272 260 251 248 244 232 235 236 235 230 225 209 205 212 221
314 315 315 312 308 304 287 260 257 243 240 237 233 226 236 216 215 210 211 208 211 213
327 325 325 317 320 314 286 260 246 235 234 231 233 227 222 221 212 215 205 201 199 193
336 332 326 326 322 334 287 246 229 226 220 216 218 219 217 212 207 198 198 192 181 177
339 336 333 332 340 15 131 156 150 154 165 172 166 195 209 191 179 176 173 169 162 159
342 346 352 25 89 103 110 111 114 117 125 136 140 174 185 184 164 156 145 140 135 130
354 9 34 90 107 109 107 111 114 118 118 125 130 149 158 153 145 135 129 125 116 109
28 52 76 99 104 108 109 112 112 111 113 118 126 136 139 135 133 128 122 116 112 107